Location: Bamobli
(6.6379°N, 10.9396°W)
Time: 21:38:58
(UTC+00:00)

N. Korean satellite - Pass Details

Date: 14 March 2021
Orbit: 453 x 499 km, 97.2° (Epoch: 12 April)

Event Time Altitude Azimuth Distance (km) Brightness Sun altitude
Rises 05:20:07 0° 27° (NNE) 2,569 10.6 -23.3°
Reaches altitude 10° 05:22:22 10° 38° (NE) 1,692 9.8 -22.8°
Maximum altitude 05:25:35 30° 100° (E) 923 8.6 -22.0°
Drops below altitude 10° 05:28:49 10° 162° (SSE) 1,699 9.5 -21.2°
Sets 05:31:04 0° 173° (S) 2,582 10.3 -20.6°
